DW6780 Weather Reports


time (UTC)temp
C
wind
direction
speed
KPH
gust
KPH
rain 1hr
cm
rain 24hr
cm
rain mn
cm
humidity
%
barometer
mb
20260510071502 22 348 0.0 0.0 0.00 0.03 0.00 82 1007.6
20260510070100 23 348 0.0 0.0 0.00 0.03 0.00 81 1007.5
20260510064612 23 348 0.0 0.0 0.00 0.03 0.00 80 1007.5
20260510063102 23 348 0.0 0.0 0.00 0.03 0.00 79 1007.4
20260510061556 23 348 0.0 0.0 0.00 0.03 0.00 79 1007.3
20260510060059 23 348 0.0 0.0 0.00 0.03 0.00 79 1007.3
20260510054555 23 348 0.0 0.0 0.00 0.03 0.00 79 1007.2
20260510053053 23 348 0.0 0.0 0.00 0.03 0.00 80 1007.2
20260510051559 23 348 0.0 0.0 0.00 0.03 0.00 81 1007.3
20260510050049 24 348 0.0 0.0 0.00 0.03 0.03 82 1007.3
20260510044550 24 348 0.0 0.0 0.00 0.03 0.03 82 1007.2
20260510043052 25 348 0.0 0.0 0.00 0.03 0.03 82 1007.2
20260510041606 25 348 0.0 0.0 0.00 0.03 0.03 82 1007.2
20260510040047 25 348 0.0 0.0 0.00 0.03 0.03 81 1007.1
20260510034547 25 348 0.0 0.0 0.00 0.03 0.03 80 1007.0
20260510033047 26 348 0.0 0.0 0.00 0.03 0.03 80 1006.9
20260510031545 26 348 0.0 0.0 0.00 0.03 0.03 79 1006.7
20260510030049 26 348 0.0 0.0 0.00 0.03 0.03 79 1006.5
20260510024554 26 348 0.0 0.0 0.00 0.03 0.03 78 1006.4
20260510023044 27 348 0.0 0.0 0.00 0.03 0.03 77 1006.1
20260510021544 27 348 0.0 0.0 0.00 0.03 0.03 75 1005.9
20260510020049 27 348 0.0 0.0 0.00 0.03 0.03 73 1005.7
20260510014543 27 348 0.0 0.0 0.00 0.03 0.03 72 1005.6
20260510013048 28 348 0.0 0.0 0.00 0.03 0.03 71 1005.4
20260510011542 28 348 0.0 0.0 0.00 0.03 0.03 69 1005.4
20260510010058 29 348 0.0 0.0 0.00 0.03 0.03 67 1005.2
20260510004541 29 348 0.0 0.0 0.00 0.03 0.03 64 1005.2
20260510003040 30 348 0.0 0.0 0.00 0.03 0.03 62 1005.1
20260510001539 30 348 0.0 0.0 0.00 0.03 0.03 60 1004.9
20260510000042 31 348 0.0 0.0 0.00 0.03 0.03 54 1004.9
20260509234557 31 348 0.0 0.0 0.00 0.03 0.03 50 1004.7
20260509233038 31 348 0.0 0.0 0.00 0.03 0.03 50 1004.6
20260509231538 31 348 0.0 0.0 0.00 0.03 0.03 52 1004.6
20260509230037 31 348 0.0 0.0 0.00 0.03 0.03 52 1004.6
20260509224537 31 348 0.0 0.0 0.00 0.03 0.03 53 1004.5
20260509223036 31 348 0.0 0.0 0.00 0.03 0.03 51 1004.6
20260509221559 31 348 0.0 0.0 0.00 0.03 0.03 53 1004.5
20260509220034 32 348 0.0 0.0 0.00 0.03 0.03 53 1004.6
20260509214535 32 348 0.0 0.0 0.00 0.03 0.03 51 1004.7
20260509213032 33 348 0.0 0.0 0.00 0.03 0.03 49 1004.7
20260509211530 33 348 0.0 0.0 0.00 0.03 0.03 49 1004.9
20260509210028 33 348 0.0 0.0 0.00 0.03 0.03 51 1005.1
20260509204527 33 348 0.0 0.0 0.00 0.03 0.03 48 1005.4
20260509203024 33 348 0.0 0.0 0.00 0.03 0.03 46 1005.6
20260509201523 33 348 0.0 0.0 0.00 0.03 0.03 47 1005.8
20260509200020 33 348 0.0 0.0 0.00 0.03 0.03 55 1006.2
20260509194518 32 348 0.0 0.0 0.00 0.03 0.03 58 1006.1
20260509193014 32 348 0.0 0.0 0.00 0.03 0.03 60 1006.1
20260509191512 32 348 0.0 0.0 0.00 0.03 0.03 61 1006.2
20260509190012 31 348 0.0 0.0 0.00 0.03 0.03 63 1006.4
20260509184521 31 348 0.0 0.0 0.00 0.03 0.03 66 1006.7
20260509183006 31 348 0.0 0.0 0.00 0.03 0.03 67 1006.9
20260509181504 30 348 0.0 0.0 0.00 0.03 0.03 66 1007.1
20260509180002 30 348 0.0 0.0 0.00 0.03 0.03 70 1007.1
20260509174601 30 348 0.0 0.0 0.00 0.03 0.03 70 1007.3
20260509173108 29 348 0.0 0.0 0.00 0.03 0.03 73 1007.7
20260509171612 28 348 0.0 0.0 0.00 0.03 0.03 75 1008.0
20260509170053 28 349 0.0 0.0 0.00 0.03 0.03 78 1007.8
20260509164554 28 349 0.0 0.0 0.00 0.03 0.03 78 1007.8
20260509163053 27 349 0.0 0.0 0.00 0.03 0.03 79 1008.0
20260509161543 26 349 0.0 0.0 0.00 0.03 0.03 83 1008.2
20260509160042 26 349 0.0 0.0 0.00 0.03 0.03 84 1008.1
20260509154540 25 348 0.0 0.0 0.00 0.03 0.03 88 1008.2
20260509153038 25 348 0.0 0.0 0.00 0.03 0.03 89 1008.0
20260509151535 24 348 0.0 0.0 0.00 0.03 0.03 90 1007.7
20260509150032 24 348 0.0 0.0 0.00 0.03 0.03 91 1007.8
20260509144530 24 348 0.0 0.0 0.00 0.03 0.03 92 1007.6
20260509143028 23 348 0.0 0.0 0.00 0.03 0.03 93 1007.6
20260509141534 23 348 0.0 0.0 0.00 0.03 0.03 95 1007.1
20260509140032 23 348 0.0 0.0 0.00 0.03 0.03 97 1006.8
20260509134522 22 348 0.0 0.0 0.00 0.03 0.03 97 1006.8
20260509133022 22 348 0.0 0.0 0.00 0.03 0.03 97 1007.0
20260509131519 22 348 0.0 0.0 0.00 0.03 0.03 97 1007.5
20260509130030 22 348 0.0 0.0 0.00 0.03 0.03 97 1008.1
20260509124526 22 348 0.0 0.0 0.00 0.03 0.03 97 1007.6
20260509123025 21 348 0.0 0.0 0.00 0.03 0.03 97 1007.3
20260509121520 21 348 0.0 0.0 0.00 0.03 0.03 96 1007.4
20260509120016 21 348 0.0 0.0 0.00 0.03 0.03 96 1007.3
20260509114515 22 348 0.0 0.0 0.00 0.03 0.03 96 1007.7
20260509113013 22 348 0.0 0.0 0.00 0.03 0.03 97 1008.0
20260509111512 22 348 0.0 0.0 0.00 0.03 0.03 96 1008.3
20260509110020 22 348 0.0 0.0 0.00 0.03 0.03 96 1008.4
20260509104514 22 348 0.0 0.0 0.00 0.03 0.03 96 1008.8
20260509103010 22 348 0.0 0.0 0.00 0.03 0.03 96 1008.7
20260509101515 22 348 0.0 0.0 0.00 0.03 0.03 96 1008.4
20260509100006 22 348 0.0 0.0 0.00 0.03 0.03 96 1007.8
20260509094504 22 348 0.0 0.0 0.00 0.03 0.03 96 1007.1
20260509093006 22 348 0.0 0.0 0.00 0.03 0.03 95 1006.9
20260509091507 22 348 0.0 0.0 0.03 0.03 0.03 95 1007.0
20260509090002 22 348 0.0 0.0 0.03 0.03 0.03 95 1006.9
20260509084503 22 348 0.0 0.0 0.03 0.03 0.03 95 1007.0
20260509083100 22 348 0.0 0.0 0.03 0.03 0.03 95 1007.2
20260509081600 22 348 0.0 0.0 0.00 0.00 0.00 94 1007.5
20260509080059 22 348 0.0 0.0 0.00 0.00 0.00 94 1007.3
20260509074611 22 348 0.0 0.0 0.00 0.00 0.00 94 1007.5
20260509073058 22 348 0.0 0.0 0.00 0.00 0.00 93 1007.3